LiveATC.Net - Listen to live air traffic control over the Internet!

ICAO: KIAB  IATA: IAB   Airport: Mc Connell Air Force Base
City: Wichita   State/Province: Kansas
Country: United States   Continent: North America
KIAB METAR Weather: KIAB 221058Z AUTO 20005KT 10SM CLR 08/05 A3005 RMK AO2 SLPNO T00820052
KIAB Flight Activity (FlightAware)
KIAB Airport Info   (AirNav) (iFlightPlanner)
KIAB VFR Sectional Chart   (iFlightPlanner) 
KIAB IFR Low Chart   (iFlightPlanner) 
KIAB Tower
Feed Status: UP   Listeners: 0
Listen right in your browser - requires Flash (in browser, requires Flash)
Click here to listen with your own player (launches your MP3 player)
KIAB Tower Audio Archives
Mc Connell Tower127.250

Feed courtesy of Hubris Communications


Unauthorized use prohibited. See Terms of Service

Find LiveATC Audio Streams

Airport/ARTCC Code

(e.g., 124.400, 128.75)
Site-wide search

Browse LiveATC Feeds
LiveATC Coverage Map
Top 50 LiveATC Feeds
Bad Weather Areas

Offer a LiveATC Feed
Press Inquiries

LiveATC on iPhone
LiveATC on Android

Windows Phone
Windows 8/10

LiveATC Mobile
(Mobile browser)

ATC Audio Archives
Interesting Recordings

LiveATC Forums

Home Page
Make a Donation
LiveATC Store

Terms of Use
Privacy Policy

Canadian Air Freqs


FAA Airport Status
Nat'l Airspace Status
Arrival Demand Charts

Server Software By: